This is the latest recevied weather packets stored in our database for station/object N8WJW. If no packets are shown the sender has not sent any weather packets the latest 10 day(s).
| Time | Temp. | Humidity | Pressure | Rain* | Wind** | Luminosity | Snow |
|---|---|---|---|---|---|---|---|
| 1777763786 | 5.56° C | 69% | 1017.6 hPa | 0 mm | - | 34 W/m² | - |
| 1777763484 | 5.56° C | 69% | 1017.5 hPa | 0 mm | - | 38 W/m² | - |
| 1777763182 | 5.56° C | 68% | 1017.6 hPa | 0 mm | - | 45 W/m² | - |
| 1777762881 | 5.56° C | 66% | 1017.7 hPa | 0 mm | - | 53 W/m² | - |
| 1777762575 | 5.56° C | 66% | 1017.6 hPa | 0 mm | - | 55 W/m² | - |
| 1777762273 | 5° C | 66% | 1017.6 hPa | 0 mm | - | 63 W/m² | - |
| 1777761969 | 5.56° C | 67% | 1017.7 hPa | 0 mm | - | 70 W/m² | - |
| 1777761666 | 5.56° C | 66% | 1017.7 hPa | 0 mm | - | 72 W/m² | - |
| 1777761364 | 5.56° C | 69% | 1017.8 hPa | 0 mm | - | 75 W/m² | - |
| 1777761063 | 5.56° C | 68% | 1017.8 hPa | 0 mm | - | 73 W/m² | - |
| 1777760759 | 5.56° C | 68% | 1017.7 hPa | 0 mm | - | 83 W/m² | - |
| 1777760455 | 5.56° C | 68% | 1017.8 hPa | 0 mm | - | 95 W/m² | - |
| 1777760150 | 5° C | 69% | 1018 hPa | 0 mm | - | 100 W/m² | - |
| 1777759843 | 5° C | 66% | 1017.7 hPa | 0 mm | - | 81 W/m² | - |
| 1777759538 | 5.56° C | 68% | 1017.9 hPa | 0 mm | - | 69 W/m² | - |
| 1777759235 | 5.56° C | 70% | 1017.6 hPa | 0 mm | - | 81 W/m² | - |
| 1777758932 | 5.56° C | 67% | 1017.7 hPa | 0 mm | - | 78 W/m² | - |
| 1777758629 | 5.56° C | 68% | 1017.8 hPa | 0 mm | - | 78 W/m² | - |
| 1777758326 | 5.56° C | 67% | 1017.6 hPa | 0 mm | - | 90 W/m² | - |
| 1777758024 | 5.56° C | 67% | 1017.8 hPa | 0 mm | - | 101 W/m² | - |
| 1777757720 | 5° C | 65% | 1017.8 hPa | 0 mm | - | 105 W/m² | - |
| 1777757419 | 5.56° C | 68% | 1017.7 hPa | 0 mm | - | 81 W/m² | - |
| 1777757117 | 5.56° C | 65% | 1017.7 hPa | 0 mm | - | 79 W/m² | - |
| 1777756814 | 6.11° C | 68% | 1017.5 hPa | 0 mm | - | 83 W/m² | - |
| 1777756510 | 6.11° C | 63% | 1017.5 hPa | 0 mm | - | 91 W/m² | - |
* Rain latest hour (hover to see other rain measurements)
** Current wind speed in m/s (hover to see current wind gust speed)